Date,TemperatureHighF,TemperatureAvgF,TemperatureLowF,DewpointHighF,DewpointAvgF,DewpointLowF,HumidityHigh,HumidityAvg,HumidityLow,PressureMaxIn,PressureMinIn,WindSpeedMaxMPH,WindSpeedAvgMPH,GustSpeedMaxMPH,PrecipitationSumIn
2013-1-1,40,37,29,32,29,20,82,74,66,30.02,29.86,5,1,10,0.03
2013-1-2,33,27,23,20,18,17,83,69,54,30.20,29.98,7,1,10,0.00
2013-1-3,34,26,19,23,18,15,89,73,49,30.21,30.09,4,0,10,0.00
2013-1-4,38,33,27,25,23,21,84,67,58,30.13,30.00,8,2,15,0.00
2013-1-5,41,33,27,26,23,21,86,69,54,30.34,30.06,4,1,8,0.00
2013-1-6,47,38,30,33,30,26,94,75,49,30.21,29.98,3,0,12,0.00
2013-1-7,46,37,24,33,29,22,94,74,54,30.40,30.08,5,1,8,0.00
2013-1-8,48,32,20,35,27,19,98,84,58,30.41,30.34,4,0,7,0.00
2013-1-9,48,35,23,40,31,22,97,88,72,30.38,30.15,2,0,8,0.00
2013-1-10,50,40,32,35,30,28,87,68,49,30.53,30.29,4,0,7,0.00
2013-1-11,46,38,28,42,35,27,98,89,74,30.51,30.07,1,0,2,0.53
2013-1-12,50,43,39,47,42,39,99,97,88,30.15,30.07,1,0,3,0.00
2013-1-13,47,45,41,47,44,41,99,99,98,30.14,29.96,1,0,4,0.01
2013-1-14,53,48,40,52,45,36,100,89,62,30.28,29.91,4,0,5,0.10
2013-1-15,40,37,34,39,33,30,96,84,72,30.34,30.18,2,0,3,0.22
2013-1-16,36,34,33,35,34,32,98,97,95,30.17,29.82,3,0,8,0.86
2013-1-17,42,38,35,36,32,30,98,80,66,30.09,29.93,6,0,8,0.00
2013-1-18,36,30,24,31,19,13,87,65,46,30.47,30.00,6,1,12,0.00
2013-1-19,52,38,25,32,27,16,84,65,41,30.39,29.93,5,1,9,0.00
2013-1-20,55,41,29,34,25,13,79,55,29,30.05,29.73,16,2,17,0.00
2013-1-21,34,28,21,23,16,10,79,62,48,30.10,29.85,5,0,11,0.00
2013-1-22,25,18,12,12,1,-3,62,48,37,30.26,29.88,10,4,19,0.00
2013-1-23,20,14,9,6,2,-2,82,61,43,30.29,30.17,7,1,14,0.00
2013-1-24,26,18,11,9,5,1,85,60,36,30.46,30.12,7,1,11,0.00
2013-1-25,22,16,7,15,6,1,91,68,46,30.46,30.07,3,0,6,0.00
2013-1-26,28,18,6,14,10,4,93,74,51,30.40,30.07,5,1,9,0.01
2013-1-27,35,20,6,19,12,4,93,75,50,30.56,30.40,4,0,8,0.00
2013-1-28,34,30,19,33,28,16,97,92,86,30.50,30.02,2,0,4,0.01
2013-1-29,53,40,32,48,39,31,98,95,83,30.12,30.00,1,0,2,0.01
2013-1-30,66,50,34,61,48,34,100,96,81,30.02,29.30,9,0,15,0.71
2013-1-31,62,43,27,61,32,13,100,67,44,29.83,29.06,21,5,24,0.95
2013-2-1,30,26,21,22,12,7,88,56,42,30.28,29.81,11,3,16,0.00
2013-2-2,28,22,14,22,12,6,92,66,47,30.32,30.02,9,1,13,0.00
2013-2-3,31,26,21,26,22,14,94,85,61,30.03,29.80,10,0,12,0.02
2013-2-4,30,25,18,23,14,11,84,65,52,30.04,29.88,8,2,13,0.00
2013-2-5,33,30,27,29,27,23,93,87,80,29.94,29.87,0,0,2,0.00
2013-2-6,40,30,22,29,24,19,98,81,55,30.34,29.92,7,1,11,0.04
2013-2-7,36,28,19,23,19,17,93,72,47,30.48,30.26,1,0,3,0.00
2013-2-8,36,34,31,35,32,24,97,92,75,30.25,29.69,2,0,6,0.20
2013-2-9,34,28,21,32,20,13,97,73,54,30.38,29.79,12,2,14,0.02
2013-2-10,43,28,14,26,15,11,87,62,32,30.48,30.29,3,0,4,0.08
2013-2-11,48,39,31,47,38,26,99,94,79,30.28,29.65,6,0,8,0.29
2013-2-12,46,39,27,38,28,24,97,68,49,29.98,29.76,11,2,16,0.00
2013-2-13,44,32,22,32,27,21,97,83,55,29.95,29.66,2,0,4,0.04
2013-2-14,46,35,27,35,30,26,98,84,48,30.00,29.71,2,0,8,0.18
2013-2-15,57,40,27,38,32,26,98,76,46,30.00,29.89,4,0,12,0.12
2013-2-16,38,34,30,33,28,16,97,79,56,29.98,29.78,3,0,5,0.04
2013-2-17,32,26,20,17,10,4,65,51,41,30.09,29.75,11,3,17,0.00
2013-2-18,37,26,19,18,11,4,73,54,39,30.31,30.10,9,2,12,0.00
2013-2-19,43,34,22,41,30,18,96,86,58,30.17,29.69,6,0,17,0.21
2013-2-20,34,29,24,28,15,11,80,57,48,30.05,29.78,9,4,17,0.00
2013-2-21,36,28,23,19,16,12,71,60,47,30.31,30.04,9,3,15,0.00
2013-2-22,37,30,22,30,22,15,84,73,59,30.39,30.23,2,0,5,0.00
2013-2-23,45,39,33,44,38,30,98,96,85,30.24,29.80,0,0,2,0.10
2013-2-24,45,38,30,39,31,21,99,78,59,30.04,29.77,8,1,13,0.00
2013-2-25,46,35,26,31,26,22,90,70,53,30.22,30.04,4,0,7,0.00
2013-2-26,47,34,22,36,30,21,96,85,59,30.24,29.78,2,0,9,0.38
2013-2-27,50,44,37,45,40,36,98,87,71,29.75,29.50,7,1,12,0.25
2013-2-28,46,41,33,37,34,28,90,77,51,29.66,29.57,5,1,12,0.00
2013-3-1,44,37,30,34,30,27,94,77,60,29.82,29.64,4,1,7,0.00
2013-3-2,41,35,32,27,25,22,78,67,52,29.82,29.73,4,1,9,0.00
2013-3-3,38,32,26,23,21,18,76,63,51,29.81,29.72,7,2,11,0.00
2013-3-4,40,34,29,24,21,17,72,61,49,29.96,29.81,10,4,18,0.00
2013-3-5,49,38,28,30,26,22,81,65,45,30.03,29.91,5,1,8,0.00
2013-3-6,41,38,32,37,33,28,92,83,70,29.95,29.76,8,1,26,0.08
2013-3-7,49,40,35,31,28,26,77,62,48,30.09,29.94,7,1,11,0.00
2013-3-8,44,37,30,31,28,23,90,71,59,30.24,30.06,9,2,14,0.00
2013-3-9,64,43,27,28,24,19,82,53,18,30.30,30.20,3,0,5,0.00
2013-3-10,61,42,24,38,29,22,92,66,30,30.34,30.23,3,0,7,0.00
2013-3-11,60,49,38,49,43,34,97,82,51,30.28,30.02,4,0,7,0.00
2013-3-12,58,51,41,57,48,34,97,88,73,30.01,29.66,6,1,13,1.00
2013-3-13,49,40,29,35,30,23,93,68,47,29.95,29.82,8,2,18,0.00
2013-3-14,41,35,30,23,17,13,71,49,35,30.00,29.91,11,4,18,0.00
2013-3-15,52,39,25,33,23,13,74,53,41,30.03,29.72,8,1,15,0.00
2013-3-16,45,37,33,33,31,25,96,80,59,29.92,29.75,2,0,4,0.07
2013-3-17,42,33,27,32,26,21,97,76,51,30.28,29.91,5,0,8,0.07
2013-3-18,40,32,24,34,26,17,97,81,54,30.35,29.90,3,0,7,0.30
2013-3-19,51,40,34,40,32,21,98,77,36,29.89,29.67,11,1,14,0.46
2013-3-20,49,39,32,25,21,18,62,49,32,29.92,29.77,11,2,20,0.00
2013-3-21,38,33,28,29,20,13,93,62,40,29.82,29.67,7,1,11,0.00
2013-3-22,42,34,26,25,21,14,76,60,46,29.93,29.78,11,3,15,0.00
2013-3-23,48,38,31,25,22,20,67,54,38,29.95,29.86,9,2,12,0.00
2013-3-24,48,38,24,28,23,20,86,58,37,29.97,29.67,5,0,6,0.00
2013-3-25,38,36,32,35,32,27,96,87,68,29.68,29.47,2,0,5,0.51
2013-3-26,52,41,33,37,33,27,97,78,40,29.90,29.63,5,1,11,0.03
2013-3-27,51,41,30,34,30,27,94,68,43,30.03,29.90,11,2,13,0.00
2013-3-28,48,41,32,33,30,27,85,66,47,30.14,30.00,4,1,10,0.00
2013-3-29,53,43,29,33,30,26,88,62,45,30.17,30.09,4,1,9,0.00
2013-3-30,60,43,27,34,28,25,96,62,29,30.19,30.07,6,1,12,0.00
2013-3-31,58,44,30,47,37,27,98,80,43,30.11,29.70,5,0,10,0.12
2013-4-1,61,47,35,48,36,16,99,67,37,29.93,29.66,10,2,16,0.00
2013-4-2,45,37,26,22,17,14,82,47,30,30.11,29.94,10,2,16,0.00
2013-4-3,47,37,25,21,17,12,71,45,30,30.31,30.11,7,2,19,0.00
2013-4-4,54,39,25,31,22,13,73,52,30,30.41,30.08,4,0,10,0.00
2013-4-5,64,49,38,35,29,20,86,50,24,30.07,29.75,8,1,14,0.00
2013-4-6,56,43,32,29,22,17,73,45,23,30.30,30.00,5,1,10,0.00
2013-4-7,66,52,38,45,37,27,76,59,41,30.28,29.97,8,1,12,0.00
2013-4-8,80,61,43,52,47,41,92,65,36,30.06,29.93,3,0,7,0.00
2013-4-9,84,69,53,57,52,48,90,58,30,29.99,29.87,6,1,12,0.00
2013-4-10,87,73,61,62,58,53,97,63,40,29.91,29.72,8,1,15,0.94
2013-4-11,68,61,50,63,57,46,99,89,71,29.93,29.76,8,0,8,0.01
2013-4-12,50,46,43,46,44,43,98,94,84,29.92,29.67,3,0,8,0.67
2013-4-13,62,50,38,44,40,36,99,71,42,29.96,29.75,6,1,13,0.01
2013-4-14,63,50,37,41,37,29,96,63,36,30.14,29.96,9,1,17,0.00
2013-4-15,63,52,46,49,42,35,80,68,55,30.32,30.14,6,0,6,0.01
2013-4-16,73,59,44,60,52,42,93,77,61,30.32,30.09,9,1,12,0.02
2013-4-17,75,62,54,57,49,35,96,67,24,30.25,30.07,3,0,7,0.00
2013-4-18,65,57,52,60,52,44,98,85,73,30.27,30.03,2,0,7,0.11
2013-4-19,79,66,54,68,62,50,98,87,64,30.03,29.57,7,1,22,1.20
2013-4-20,59,51,42,48,36,27,94,60,36,30.31,29.72,7,2,13,0.11
2013-4-21,58,45,32,34,28,22,76,54,32,30.59,30.32,4,0,8,0.00
2013-4-22,58,45,31,40,35,30,96,71,45,30.60,30.43,7,0,10,0.00
2013-4-23,53,47,42,46,41,35,90,79,67,30.43,30.12,3,0,6,0.00
2013-4-24,74,56,36,58,49,35,98,80,56,30.12,29.77,7,1,10,0.00
2013-4-25,66,53,42,56,35,29,79,52,26,30.27,29.89,7,2,18,0.00
2013-4-26,68,50,35,42,36,30,97,62,28,30.41,30.27,5,1,7,0.00
2013-4-27,73,54,33,42,37,32,97,60,25,30.43,30.26,3,0,6,0.00
2013-4-28,72,56,39,46,40,34,94,60,32,30.29,30.16,7,0,12,0.00
2013-4-29,58,55,51,57,53,45,98,93,75,30.19,30.09,2,0,6,0.56
2013-4-30,73,59,45,56,49,38,98,73,38,30.30,30.14,6,0,8,0.03
2013-5-1,73,55,36,48,40,33,97,64,24,30.45,30.31,3,0,10,0.00
2013-5-2,76,56,38,51,44,37,98,69,34,30.44,30.30,4,0,6,0.00
2013-5-3,69,56,43,47,43,39,96,67,35,30.40,30.31,3,0,10,0.00
2013-5-4,74,56,38,50,44,37,98,69,35,30.34,30.17,5,0,8,0.00
2013-5-5,70,53,39,48,43,38,96,71,42,30.26,30.16,3,0,7,0.00
2013-5-6,74,55,40,59,50,39,96,83,59,30.22,30.09,3,0,6,0.00
2013-5-7,64,53,50,60,46,-100,97,87,87,30.12,30.03,0,-60,5,0.09
2013-5-8,74,63,57,67,60,56,99,92,73,30.02,29.90,2,0,6,0.09
2013-5-9,73,62,56,60,58,55,99,86,60,29.96,29.89,5,0,8,0.10
2013-5-10,84,67,50,64,58,50,100,76,40,29.99,29.87,3,0,8,0.70
2013-5-11,74,65,60,68,63,60,98,92,75,29.91,29.68,3,0,9,0.01
2013-5-12,65,58,46,59,44,27,97,63,34,29.97,29.69,6,1,12,0.02
2013-5-13,57,47,37,37,33,28,92,62,33,30.12,29.97,4,0,9,0.00
2013-5-14,65,49,32,40,34,30,97,62,29,30.16,30.02,3,0,7,0.00
2013-5-15,75,61,49,61,52,39,94,74,58,30.06,29.69,4,0,10,0.00
2013-5-16,84,67,54,68,60,53,98,82,50,29.84,29.71,4,0,7,0.06
2013-5-17,82,63,48,56,50,47,98,68,33,30.17,29.85,2,0,5,0.00
2013-5-18,71,60,54,59,55,49,98,84,58,30.25,30.17,2,0,8,0.09
2013-5-19,64,60,57,63,60,57,99,98,96,30.24,30.13,2,0,5,0.01
2013-5-20,82,67,58,71,64,58,100,91,69,30.14,29.96,2,0,6,0.01
2013-5-21,86,74,60,74,68,59,99,84,62,29.96,29.84,4,0,9,0.00
2013-5-22,91,77,66,76,71,66,99,82,52,29.89,29.79,4,0,8,0.00
2013-5-23,81,73,66,71,69,65,97,89,70,29.86,29.73,5,0,7,0.57
2013-5-24,66,56,46,65,52,40,99,89,72,30.03,29.69,3,0,11,0.65
2013-5-25,63,54,45,45,40,36,91,64,40,30.06,29.98,5,1,12,0.02
2013-5-26,74,58,44,47,41,37,84,56,30,30.20,30.03,7,1,12,0.00
2013-5-27,75,58,39,50,44,38,98,66,33,30.26,30.13,3,0,5,0.00
2013-5-28,65,59,51,64,57,48,98,94,83,30.19,30.09,1,0,2,0.01
2013-5-29,92,74,60,73,66,60,99,78,45,30.09,30.00,4,0,7,0.01
2013-5-30,95,79,63,74,68,62,99,73,39,30.13,30.05,4,0,6,0.00
2013-5-31,94,79,64,72,67,62,98,71,35,30.11,29.99,4,0,8,0.00
2013-6-1,93,79,64,74,69,64,99,75,47,30.01,29.88,4,0,8,0.00
2013-6-2,86,78,71,75,70,67,88,77,62,29.89,29.77,4,0,10,0.00
2013-6-3,84,73,64,73,68,61,98,85,60,29.88,29.78,1,0,4,0.33
2013-6-4,81,66,52,61,51,46,91,62,35,30.09,29.89,3,0,6,0.00
2013-6-5,84,65,48,58,51,47,98,66,34,30.19,30.05,2,0,5,0.00
2013-6-6,75,63,53,63,58,51,97,85,54,30.11,29.94,2,0,7,0.31
2013-6-7,67,64,61,67,63,60,99,99,97,29.94,29.59,1,0,5,1.28
2013-6-8,81,67,60,68,64,59,100,89,61,30.06,29.60,2,0,4,1.36
2013-6-9,86,70,55,69,62,55,99,79,47,30.17,30.06,1,0,5,0.00
2013-6-10,72,69,65,72,68,64,98,96,90,30.12,29.75,2,0,5,0.91
2013-6-11,82,73,64,71,67,62,99,83,66,29.76,29.66,5,1,10,0.95
2013-6-12,85,72,61,68,63,60,97,75,50,29.82,29.75,2,0,6,0.00
2013-6-13,81,69,61,74,65,59,98,88,73,29.81,29.37,2,0,5,0.06
2013-6-14,79,65,56,63,58,54,98,80,52,29.91,29.52,2,0,8,0.15
2013-6-15,84,68,54,66,59,53,99,75,44,30.02,29.91,2,0,7,0.00
2013-6-16,83,69,56,69,62,55,97,82,55,29.99,29.80,5,0,11,0.01
2013-6-17,88,74,63,73,67,62,99,81,53,29.91,29.82,5,0,8,0.02
2013-6-18,78,67,63,72,66,62,99,96,77,29.89,29.78,1,0,6,0.12
2013-6-19,84,68,57,65,59,53,99,76,37,30.14,29.86,1,0,5,0.12
2013-6-20,83,68,54,65,58,53,98,74,49,30.25,30.14,2,0,7,0.00
2013-6-21,88,70,53,65,58,52,95,69,41,30.29,30.21,3,0,5,0.00
2013-6-22,88,72,55,72,63,54,98,77,50,30.25,30.09,6,0,7,0.00
2013-6-23,88,75,61,75,69,61,98,82,61,30.18,30.03,2,0,10,0.00
2013-6-24,94,78,68,80,71,65,98,80,52,30.07,29.95,3,0,5,0.00
2013-6-25,92,77,64,76,70,63,98,80,51,30.00,29.83,6,0,6,0.01
2013-6-26,93,75,66,78,71,65,98,87,53,29.86,29.75,0,0,10,0.20
2013-6-27,90,76,68,78,72,68,99,89,61,29.80,29.53,5,0,10,1.10
2013-6-28,88,75,68,76,71,67,98,87,64,29.56,29.45,2,0,7,1.10
2013-6-29,89,76,66,71,68,65,99,78,48,29.67,29.46,2,0,5,0.00
2013-6-30,84,75,67,77,72,65,97,89,72,29.86,29.68,3,0,6,0.00
2013-7-1,80,75,70,76,73,70,98,94,85,29.98,29.84,3,0,6,1.56
2013-7-2,86,77,73,77,74,71,97,89,71,30.16,29.99,3,0,9,0.01
2013-7-3,89,78,71,79,74,70,98,88,67,30.21,30.14,5,0,10,0.00
2013-7-4,91,80,72,79,74,71,99,84,59,30.23,30.14,5,0,8,0.00
2013-7-5,91,82,72,79,74,71,98,80,56,30.19,30.08,5,0,10,0.00
2013-7-6,96,82,72,79,75,71,98,80,52,30.14,30.01,2,0,9,0.00
2013-7-7,94,80,70,80,74,69,98,82,59,30.06,29.93,3,0,9,0.47
2013-7-8,88,74,68,76,71,68,99,89,61,30.05,29.98,1,0,7,0.08
2013-7-9,88,77,68,78,73,68,98,87,67,30.06,29.98,2,0,9,0.08
2013-7-10,89,80,72,78,75,71,98,86,65,29.99,29.80,4,0,9,0.00
2013-7-11,87,77,70,76,72,67,96,85,62,29.90,29.79,2,0,5,0.01
2013-7-12,76,71,67,72,68,64,98,91,83,30.02,29.89,0,0,6,1.22
2013-7-13,92,77,69,80,74,69,99,90,66,30.27,30.02,2,0,5,1.23
2013-7-14,94,81,71,80,75,71,99,82,56,30.32,30.23,2,0,4,0.00
2013-7-15,96,82,70,81,74,69,98,81,56,30.26,30.12,2,0,4,0.00
2013-7-16,97,82,72,79,74,71,98,79,51,30.20,30.11,1,0,4,0.00
2013-7-17,99,82,70,79,74,69,98,79,49,30.18,30.05,1,0,3,0.00
2013-7-18,98,84,73,83,77,72,96,80,51,30.07,29.95,2,0,3,0.00
2013-7-19,97,86,77,84,79,75,98,81,59,29.98,29.80,4,0,7,0.00
2013-7-20,92,82,74,79,74,70,90,78,59,29.83,29.74,6,0,11,0.00
2013-7-21,91,80,72,78,73,70,92,81,54,29.92,29.82,1,0,3,0.00
2013-7-22,87,77,71,81,74,70,98,91,73,29.92,29.75,1,0,4,0.07
2013-7-23,88,77,70,78,73,70,99,89,67,29.74,29.57,1,0,8,0.02
2013-7-24,86,73,64,71,68,57,98,83,56,29.92,29.62,2,0,5,0.02
2013-7-25,76,65,55,65,59,53,93,81,63,30.03,29.92,2,0,5,0.00
2013-7-26,85,71,60,67,62,59,97,76,47,30.04,30.00,2,0,5,0.00
2013-7-27,87,72,58,74,65,57,99,81,56,30.03,29.90,2,0,6,0.00
2013-7-28,84,73,67,76,70,64,98,89,71,29.95,29.86,5,0,7,0.03
2013-7-29,84,73,62,68,63,55,99,76,37,30.11,29.94,4,0,6,0.06
2013-7-30,83,69,56,67,60,55,98,77,49,30.18,30.11,3,0,4,0.00
2013-7-31,84,71,57,70,64,56,98,82,51,30.15,30.01,1,0,3,0.00
2013-8-1,75,70,67,73,68,65,98,95,90,30.00,29.80,0,0,2,0.09
2013-8-2,85,74,64,73,68,63,99,82,55,29.92,29.80,3,0,5,0.10
2013-8-3,78,69,63,72,67,62,97,92,72,29.92,29.86,3,0,6,0.06
2013-8-4,82,68,58,65,61,57,100,80,47,29.99,29.86,2,0,6,0.00
2013-8-5,82,65,53,65,57,52,99,78,41,30.08,29.99,7,0,7,0.00
2013-8-6,80,66,54,68,61,54,99,85,57,30.09,30.02,3,0,7,0.00
2013-8-7,75,71,66,71,68,64,96,91,82,30.09,30.02,3,0,6,0.00
2013-8-8,88,77,68,79,73,67,99,88,67,30.03,29.95,4,0,8,0.07
2013-8-9,85,78,74,80,75,72,98,91,79,29.97,29.80,3,0,8,0.03
2013-8-10,86,75,67,73,70,66,99,84,56,30.03,29.87,2,0,5,0.03
2013-8-11,88,73,60,72,66,60,99,80,49,30.11,29.99,2,0,4,0.00
2013-8-12,89,75,68,73,69,66,99,84,52,30.01,29.90,2,0,3,0.00
2013-8-13,85,72,65,75,69,65,99,91,64,29.90,29.69,2,0,4,2.52
2013-8-14,76,66,55,65,56,50,94,71,51,30.05,29.76,3,0,10,0.00
2013-8-15,82,63,50,63,55,49,99,77,37,30.15,30.06,1,0,3,0.00
2013-8-16,86,66,51,66,57,50,99,78,38,30.19,30.12,1,0,3,0.00
2013-8-17,90,69,54,68,60,53,99,78,44,30.25,30.19,0,0,3,0.00
2013-8-18,76,67,62,67,63,59,96,88,67,30.23,30.13,0,0,1,0.00
2013-8-19,78,68,60,70,64,59,99,89,69,30.14,30.04,2,0,4,0.01
2013-8-20,90,73,60,75,67,59,99,83,51,30.13,30.06,3,0,5,0.01
2013-8-21,92,74,60,75,68,59,99,84,49,30.18,30.04,0,0,4,0.00
2013-8-22,85,76,70,78,73,69,97,91,72,30.05,29.87,2,0,5,0.75
2013-8-23,76,69,61,69,66,60,99,91,77,30.09,29.89,0,0,1,0.00
2013-8-24,85,67,55,64,59,54,99,79,40,30.33,30.09,1,0,3,0.00
2013-8-25,84,66,50,65,58,50,99,79,44,30.40,30.23,2,0,5,0.00
2013-8-26,87,72,60,72,65,58,95,80,58,30.24,29.92,2,0,7,0.00
2013-8-27,92,77,68,74,70,66,96,79,51,29.91,29.84,1,0,4,0.00
2013-8-28,75,71,68,74,70,67,99,98,96,29.88,29.81,0,0,2,0.16
2013-8-29,87,74,69,76,71,68,99,93,69,30.00,29.85,0,0,3,0.18
2013-8-30,85,74,66,77,71,66,99,91,74,30.01,29.85,1,0,5,0.07
2013-8-31,87,77,70,79,74,69,98,89,72,29.86,29.77,4,0,6,0.00
2013-9-1,91,78,71,79,74,70,99,88,62,29.82,29.74,3,0,5,0.00
2013-9-2,89,76,69,78,73,66,98,90,67,29.77,29.68,2,0,6,0.00
2013-9-3,84,73,64,71,64,58,99,78,48,29.90,29.69,3,0,5,0.00
2013-9-4,85,68,57,65,60,56,98,77,46,30.03,29.90,4,0,6,0.00
2013-9-5,82,66,52,67,58,51,98,79,42,30.14,29.95,4,0,5,0.00
2013-9-6,79,59,47,52,48,44,97,73,34,30.25,30.13,2,0,4,0.00
2013-9-7,83,61,44,60,53,43,99,78,39,30.13,29.90,2,0,7,0.00
2013-9-8,84,69,55,70,62,51,97,79,57,30.06,29.84,3,0,7,0.00
2013-9-9,76,62,46,65,56,45,98,84,58,30.21,30.07,3,0,5,0.00
2013-9-10,90,76,66,78,71,63,96,86,66,30.15,30.04,3,0,6,0.00
2013-9-11,94,80,69,81,74,69,99,84,61,30.11,29.97,4,0,8,0.00
2013-9-12,89,76,68,78,72,67,98,89,67,29.97,29.69,5,0,7,0.09
2013-9-13,78,68,56,68,62,51,99,82,54,29.89,29.64,4,0,7,0.11
2013-9-14,68,56,46,52,49,44,98,80,57,30.15,29.89,3,0,8,0.00
2013-9-15,75,57,41,57,50,40,99,81,48,30.22,30.08,2,0,5,0.00
2013-9-16,72,60,53,63,57,50,98,89,66,30.23,30.02,4,0,4,0.12
2013-9-17,72,54,41,50,45,40,98,76,39,30.42,30.24,2,0,5,0.00
2013-9-18,75,53,38,53,45,37,99,79,38,30.35,30.18,2,0,4,0.00
2013-9-19,80,57,41,60,50,40,99,81,42,30.19,30.06,2,0,5,0.00
2013-9-20,82,62,46,65,56,46,99,83,49,30.08,29.95,3,0,6,0.00
2013-9-21,80,65,50,66,60,49,100,85,57,29.99,29.66,4,0,10,0.70
2013-9-22,70,60,47,63,54,46,99,83,51,29.92,29.66,4,0,7,0.94
2013-9-23,69,54,44,51,46,42,96,77,50,30.05,29.92,3,0,5,0.00
2013-9-24,76,54,38,55,47,38,99,81,45,30.08,29.90,3,0,4,0.00
2013-9-25,78,55,40,56,48,40,99,81,42,29.97,29.86,2,0,3,0.00
2013-9-26,76,58,45,61,53,44,99,85,56,30.07,29.93,2,0,3,0.00
2013-9-27,75,60,52,59,55,50,98,84,53,30.25,30.07,1,0,3,0.00
2013-9-28,77,60,50,57,53,48,98,80,42,30.30,30.21,1,0,5,0.00
2013-9-29,75,56,44,60,52,43,99,87,52,30.22,30.06,1,0,4,0.00
2013-9-30,75,57,44,59,51,43,99,84,49,30.09,29.97,2,0,4,0.00
2013-10-1,82,61,47,65,56,46,99,84,50,30.03,29.92,2,0,5,0.00
2013-10-2,86,66,50,67,59,50,100,83,49,30.02,29.93,1,0,6,0.00
2013-10-3,86,67,53,68,61,53,99,84,48,30.11,30.01,3,0,4,0.00
2013-10-4,88,70,58,71,64,57,99,84,52,30.06,29.96,4,0,5,0.00
2013-10-5,89,73,62,71,67,62,99,83,52,30.07,29.97,3,0,3,0.00
2013-10-6,82,71,66,73,68,65,98,90,70,30.04,29.94,2,0,6,0.19
2013-10-7,76,65,53,73,64,50,99,95,84,30.00,29.73,4,0,13,0.08
2013-10-8,68,54,44,54,49,43,99,84,52,30.30,30.00,2,0,4,0.08
2013-10-9,62,53,43,52,48,43,99,86,66,30.36,30.24,3,0,8,0.00
2013-10-10,57,55,51,57,54,50,98,95,86,30.23,30.00,1,0,4,0.17
2013-10-11,63,60,57,62,59,57,99,98,94,30.04,29.95,1,0,5,0.07
2013-10-12,72,63,57,60,56,49,99,79,52,30.21,30.02,4,0,8,0.07
2013-10-13,71,60,47,57,52,46,95,77,56,30.35,30.21,5,1,8,0.00
2013-10-14,71,54,42,56,49,42,99,84,51,30.34,30.21,1,0,4,0.00
2013-10-15,76,55,43,58,49,43,99,82,44,30.24,30.09,4,0,6,0.00
2013-10-16,68,57,47,61,54,46,97,92,77,30.10,29.90,0,0,3,0.00
2013-10-17,75,64,56,65,61,56,99,91,69,29.90,29.69,3,0,5,0.06
2013-10-18,67,56,43,62,47,41,95,74,50,29.99,29.73,5,1,11,0.07
2013-10-19,66,51,38,55,46,38,99,86,56,29.99,29.75,1,0,5,0.06
2013-10-20,63,51,38,51,41,37,97,72,44,30.07,29.79,5,0,10,0.06
2013-10-21,69,48,33,47,40,32,99,78,39,30.14,29.96,3,0,9,0.00
2013-10-22,64,49,39,54,44,35,99,85,59,29.96,29.77,3,0,7,0.01
2013-10-23,58,46,37,42,38,35,94,77,50,29.82,29.62,3,0,5,0.00
2013-10-24,52,40,33,37,32,29,97,76,45,30.05,29.80,6,0,9,0.00
2013-10-25,55,41,29,39,33,27,97,77,49,30.25,30.06,6,0,9,0.00
2013-10-26,55,42,28,37,32,27,98,70,41,30.25,29.90,10,1,20,0.00
2013-10-27,58,46,33,38,34,31,93,66,43,30.13,29.89,7,1,9,0.00
2013-10-28,63,42,28,41,34,27,98,78,41,30.30,30.14,2,0,5,0.00
2013-10-29,62,43,30,43,37,30,98,81,46,30.39,30.30,2,0,4,0.00
2013-10-30,59,48,37,54,46,36,97,91,79,30.33,30.16,2,0,4,0.00
2013-10-31,67,57,45,62,55,44,99,92,80,30.20,29.77,1,0,6,0.04
2013-11-1,69,62,49,65,58,48,98,88,67,29.77,29.54,7,1,14,0.53
2013-11-2,69,54,44,55,47,41,99,82,48,29.80,29.62,4,0,7,0.00
2013-11-3,54,44,30,42,33,23,94,69,42,30.46,29.81,4,0,8,0.00
2013-11-4,50,34,23,27,23,18,92,68,31,30.64,30.46,2,0,5,0.00
2013-11-5,58,42,29,44,36,26,95,80,57,30.63,30.47,2,0,5,0.00
2013-11-6,66,54,42,52,48,41,95,81,57,30.47,30.05,8,0,8,0.00
2013-11-7,60,52,42,57,49,36,98,89,73,30.05,29.80,7,1,9,0.08
2013-11-8,49,40,32,34,30,27,90,67,47,30.26,29.98,6,1,15,0.00
2013-11-9,52,38,26,32,29,25,97,74,43,30.32,29.98,4,0,9,0.00
2013-11-10,59,43,28,41,31,27,98,66,42,30.12,29.88,9,2,18,0.00
2013-11-11,54,47,33,38,33,28,86,59,48,30.23,29.97,5,1,10,0.00
2013-11-12,50,37,21,38,25,17,84,63,46,30.33,29.93,5,0,9,0.00
2013-11-13,41,30,20,22,18,15,90,64,38,30.42,30.31,6,0,9,0.00
2013-11-14,55,36,24,26,21,14,89,60,21,30.31,30.18,8,1,13,0.00
2013-11-15,60,38,24,36,28,22,94,73,30,30.25,30.15,2,0,3,0.00
2013-11-16,61,48,37,49,44,33,97,85,60,30.32,30.23,3,0,3,0.06
2013-11-17,67,57,49,59,53,48,97,87,70,30.24,29.75,3,0,10,0.00
2013-11-18,64,58,48,61,42,28,95,59,32,29.85,29.62,9,2,17,0.18
2013-11-19,49,42,28,31,27,22,79,55,44,30.36,29.85,8,1,14,0.00
2013-11-20,48,32,22,27,20,14,93,67,27,30.58,30.36,2,0,4,0.00
2013-11-21,54,37,20,41,30,17,94,77,56,30.60,30.38,2,0,4,0.00
2013-11-22,57,50,45,50,47,41,98,89,77,30.37,29.95,3,0,8,0.02
2013-11-23,52,41,28,49,28,16,92,62,45,30.10,29.96,9,2,15,0.02
2013-11-24,30,25,22,15,4,2,58,42,33,30.44,30.10,6,2,18,0.00
2013-11-25,36,26,16,19,14,8,85,62,42,30.53,30.32,4,0,8,0.00
2013-11-26,47,34,30,47,29,19,99,81,57,30.33,29.62,2,0,4,0.71
2013-11-27,59,41,30,59,38,20,99,89,62,29.86,29.41,9,2,20,0.05
2013-11-28,35,30,27,23,19,17,78,65,54,30.47,29.87,7,2,13,0.05
2013-11-29,40,28,19,25,21,18,96,75,50,30.73,30.46,4,0,7,0.00
2013-11-30,41,27,15,30,22,13,95,82,60,30.73,30.37,0,0,4,0.00
2013-12-1,48,36,23,33,28,22,96,77,54,30.36,30.02,2,0,4,0.00
2013-12-2,51,40,33,36,33,30,92,79,56,30.01,29.86,1,0,3,0.00
2013-12-3,54,40,29,41,35,28,94,82,52,30.00,29.87,2,0,4,0.00
2013-12-4,55,42,29,45,38,28,97,85,64,30.10,30.00,1,0,2,0.00
2013-12-5,57,52,47,55,51,44,98,94,86,30.09,29.91,2,0,5,0.00
2013-12-6,61,47,36,60,46,34,99,96,93,30.16,29.85,2,0,6,0.82
2013-12-7,40,34,27,36,30,25,97,86,67,30.52,30.09,3,0,8,0.90
2013-12-8,29,27,24,28,23,19,96,87,68,30.59,30.31,0,0,2,0.00
2013-12-9,35,33,29,35,32,28,98,97,96,30.31,29.99,2,0,4,0.08
2013-12-10,33,29,16,32,28,15,98,96,90,30.17,29.93,0,0,6,0.09
2013-12-11,33,21,11,24,17,9,97,85,62,30.37,30.17,5,0,12,0.00
2013-12-12,28,21,16,19,13,9,96,75,49,30.38,30.18,5,0,7,0.00
2013-12-13,36,26,15,22,16,9,88,65,49,30.33,30.16,5,1,15,0.02
2013-12-14,31,28,24,30,25,21,97,89,81,30.41,29.70,2,0,5,0.00
2013-12-15,38,33,28,34,29,22,97,85,66,29.87,29.56,9,1,12,0.03
2013-12-16,32,25,17,24,14,10,83,64,45,30.22,29.87,6,2,12,0.03
2013-12-17,30,24,19,26,21,17,94,88,80,30.20,29.95,2,0,2,0.00
2013-12-18,37,26,18,24,20,17,96,80,56,30.20,29.96,8,1,13,0.05
2013-12-19,49,30,15,30,24,14,94,79,48,30.19,30.04,3,0,7,0.01
2013-12-20,53,38,27,35,31,26,96,79,48,30.09,29.96,3,0,7,0.02
2013-12-21,63,46,32,57,42,31,99,87,68,30.00,29.88,4,0,7,0.00
2013-12-22,67,63,59,63,60,57,94,90,85,29.94,29.79,9,1,13,0.01
2013-12-23,59,53,39,59,50,32,99,91,76,30.17,29.90,4,0,9,0.01
2013-12-24,38,32,24,32,23,13,86,69,57,30.40,30.14,6,1,15,0.01
2013-12-25,29,24,18,18,12,8,72,61,48,30.55,30.40,3,0,7,0.00
2013-12-26,38,26,18,30,22,16,94,85,67,30.39,30.18,7,0,13,0.01
2013-12-27,44,28,18,27,22,17,97,79,43,30.38,30.28,4,0,12,0.00
2013-12-28,57,36,19,32,26,18,97,71,36,30.30,30.08,8,0,10,0.00
2013-12-29,43,38,32,42,36,28,97,92,66,30.08,29.45,4,0,6,0.02
2013-12-30,43,36,24,40,30,18,98,80,64,30.17,29.74,7,1,9,0.02
2013-12-31,35,27,20,28,19,13,87,72,55,30.31,30.06,5,0,13,0.00
2014-1-1,38,29,19,26,21,14,84,74,56,30.40,30.19,2,0,4,0.00
2014-1-2,31,27,17,26,24,15,94,86,80,30.18,29.66,2,0,6,0.00